[[{"header":{"parameterUnit":"m.s-1","parameterCategory":1,"la1":30.2991,"la2":30.254,"lo1":-89.0895,"lo2":-89.0444,"dy":0.0017,"dx":0.0017,"nx":28,"ny":28,"refTime":"2024-03-29T21:00:00:Z","depth":0,"parameterNumber":2,"parameterNumberName":"U-component_of_WINDS"},"data":[0,0,0,0,0,0,0,0,0,0,0,0,0,0,0,0,0,0,0,0,0,0,0,0,0,0,0,0,0,0,0,0,0,0,0,0,0,0,0,0,0,0,0,0,0,0,0,0,0,0,0,0,0,0,0,0,0,0,-0.7432,-0.7432,0,-0.741,-0.741,-0.741,-0.7385,-0.7384,-0.7384,-0.7384,-0.7362,-0.7362,-0.7362,0,0,0,0,0,0,0,0,0,0,0,0,0,-0.7453,-0.7452,-0.7432,-0.7432,-0.7431,-0.741,-0.741,-0.741,-0.7385,-0.7384,-0.7384,-0.7384,-0.7362,-0.7362,-0.7362,0,0,0,0,0,0,0,0,0,0,0,0,0,-0.7439,-0.7452,-0.7432,-0.7416,-0.7415,-0.741,-0.741,-0.741,-0.7385,-0.7384,-0.7384,-0.7383,-0.7363,-0.7362,-0.7362,-0.7371,0,0,-0.7361,-0.7361,0,0,0,0,0,0,0,0,-0.744,-0.7438,-0.7419,-0.7417,-0.7416,-0.74,-0.741,-0.7397,-0.7385,-0.7396,-0.7384,-0.7383,-0.7375,-0.7374,-0.7371,-0.737,-0.737,-0.7361,-0.7361,-0.7361,-0.7361,0,0,0,0,0,0,0,-0.7441,-0.7439,-0.7423,-0.7419,-0.7417,-0.7411,-0.7408,-0.7407,-0.7389,-0.7395,-0.7393,-0.7391,-0.7374,-0.7372,-0.737,-0.7369,-0.7361,-0.7361,-0.736,-0.736,-0.7376,-0.7377,0,0,0,0,0,0,-0.7444,-0.744,-0.7424,-0.7423,-0.7426,-0.7411,-0.7408,-0.7405,-0.7389,-0.7386,-0.7392,-0.739,-0.7372,-0.7371,-0.737,-0.738,-0.7361,-0.736,-0.736,-0.7375,-0.7376,-0.7377,0,0,0,0,0,0,-0.7444,-0.7443,-0.7425,-0.7431,-0.7428,-0.7411,-0.7408,-0.7405,-0.7402,-0.7386,-0.7383,-0.7392,-0.7372,-0.737,-0.7371,-0.7379,-0.736,-0.736,-0.7375,-0.7376,-0.7376,-0.7401,0,0,0,0,0,0,-0.7445,-0.7443,-0.7446,-0.7431,-0.7428,-0.7427,-0.7409,-0.7405,-0.7402,-0.74,-0.7386,-0.7383,-0.7371,-0.7372,-0.7371,-0.7378,-0.736,-0.7374,-0.7375,-0.7376,-0.7399,-0.7403,-0.7405,0,0,0,0,0,-0.7446,-0.7454,-0.7446,-0.7444,-0.7431,-0.7427,-0.7425,-0.7411,-0.7403,-0.7406,-0.7396,-0.7384,-0.7378,-0.7372,-0.7371,-0.7378,-0.7373,-0.7375,-0.7376,-0.7398,-0.7402,-0.7405,0,0,0,0,0,0,-0.747,-0.7451,-0.7443,-0.7446,-0.7438,-0.7423,-0.7426,-0.7416,-0.741,-0.7408,-0.7391,-0.7389,-0.7392,-0.7385,-0.7379,-0.7387,-0.7374,-0.7375,-0.7391,-0.7395,-0.7398,-0.7399,-0.7359,0,0,0,0,0,-0.7476,-0.7474,-0.7458,-0.7462,-0.7459,-0.7443,-0.7441,-0.7431,-0.7422,-0.7419,-0.7409,-0.7401,-0.7398,-0.7396,-0.7392,-0.7398,-0.7395,-0.7403,-0.7406,-0.7408,-0.741,-0.7413,-0.7416,-0.7381,-0.7381,-0.7381,0,0,-0.7488,-0.7477,-0.7477,-0.7467,-0.7459,-0.7458,-0.7441,-0.744,-0.7439,-0.7419,-0.7419,-0.7412,-0.7402,-0.7406,-0.7408,-0.7401,-0.7419,-0.741,-0.7412,-0.7412,-0.7415,-0.7418,-0.7421,-0.7382,-0.7382,-0.7382,0,0,-0.7509,-0.75,-0.7503,-0.7497,-0.7486,-0.7476,-0.7477,-0.7463,-0.7457,-0.7457,-0.7442,-0.7441,-0.7436,-0.743,-0.7426,-0.7445,-0.7434,-0.7445,-0.746,-0.7464,-0.7467,-0.7469,-0.7477,-0.7479,-0.7446,-0.7446,-0.7446,0,-0.7525,-0.7522,-0.7506,-0.7507,-0.7503,-0.7485,-0.7488,-0.7482,-0.7471,-0.7469,-0.7461,-0.7455,-0.7447,-0.745,-0.7454,-0.7452,-0.7453,-0.7446,-0.7467,-0.747,-0.7472,-0.7479,-0.7481,-0.7447,-0.7447,-0.7447,-0.7447,0,-0.7543,-0.7541,-0.7545,-0.7534,-0.7531,-0.7533,-0.7518,-0.7517,-0.7507,-0.7498,-0.7499,-0.7489,-0.7483,-0.7483,-0.7473,-0.7484,-0.7481,-0.7471,-0.7457,-0.7477,-0.7483,-0.7485,-0.7449,-0.7449,-0.7448,-0.7448,0,0,-0.7578,-0.7559,-0.7561,-0.7556,-0.7543,-0.7542,-0.7543,-0.7537,-0.7537,-0.753,-0.7531,-0.7527,-0.7518,-0.7513,-0.7503,-0.7506,-0.7523,-0.7496,-0.7496,-0.7502,-0.7536,-0.7544,-0.7547,-0.7516,-0.7516,-0.7517,-0.7537,0,-0.7597,-0.7598,-0.7584,-0.7589,-0.7588,-0.7571,-0.7572,-0.7564,-0.7556,-0.7554,-0.7545,-0.7543,-0.753,-0.7528,-0.753,-0.7521,-0.753,-0.7519,-0.7517,-0.7517,-0.752,-0.755,-0.7558,-0.7577,-0.7539,-0.7539,-0.754,0,-0.7619,-0.7614,-0.7618,-0.7606,-0.7604,-0.7606,-0.7599,-0.7597,-0.7589,-0.7583,-0.7578,-0.7567,-0.7568,-0.7555,-0.7557,-0.755,-0.7548,-0.7544,-0.7544,-0.7543,-0.753,-0.7551,-0.7583,-0.7586,-0.7543,-0.7543,-0.7543,0,-0.7646,-0.7639,-0.7641,-0.7637,-0.7622,-0.7624,-0.7618,-0.7609,-0.7606,-0.7601,-0.7599,-0.7594,-0.7592,-0.7588,-0.7576,-0.7568,-0.7579,-0.7565,-0.7575,-0.7575,-0.7578,-0.7578,-0.7611,-0.7576,-0.7576,-0.7576,-0.7576,0,-0.7668,-0.7672,-0.7652,-0.7654,-0.7657,-0.7642,-0.7646,-0.7639,-0.7631,-0.7631,-0.7616,-0.7616,-0.76,-0.7598,-0.7589,-0.7592,-0.7591,-0.7586,-0.7584,-0.7588,-0.7588,-0.7587,-0.7585,-0.7577,-0.7577,-0.7577,-0.7577,0,-0.7698,-0.7685,-0.7686,-0.7672,-0.7669,-0.7672,-0.7661,-0.7662,-0.7652,-0.7653,-0.7652,-0.7638,-0.7635,-0.7623,-0.7617,-0.7611,-0.7618,-0.7612,-0.7621,-0.7619,-0.7629,-0.7628,-0.7662,-0.7666,-0.7629,-0.7629,-0.763,0,-0.7714,-0.7716,-0.7702,-0.7701,-0.7696,-0.7694,-0.7691,-0.7677,-0.7674,-0.7665,-0.7668,-0.7664,-0.766,-0.7658,-0.7647,-0.7644,-0.7638,-0.765,-0.7637,-0.7642,-0.7639,-0.7639,-0.7639,-0.7653,-0.7654,-0.7654,-0.7654,0,-0.7743,-0.7737,-0.7733,-0.7728,-0.7725,-0.772,-0.7714,-0.7714,-0.7698,-0.7696,-0.7694,-0.7691,-0.7686,-0.7683,-0.7677,-0.7672,-0.7661,-0.7658,-0.766,-0.7665,-0.767,-0.7668,-0.7628,-0.7658,-0.7657,-0.7657,-0.7657,-0.7657,-0.7767,-0.7768,-0.7759,-0.7756,-0.775,-0.7745,-0.7745,-0.7736,-0.7733,-0.7728,-0.7719,-0.7718,-0.771,-0.7702,-0.7697,-0.7696,-0.769,-0.7692,-0.7693,-0.7694,-0.7696,-0.767,-0.7695,-0.7695,-0.7695,-0.7695,-0.7695,0,-0.7796,-0.7789,-0.7786,-0.7778,-0.7776,-0.7765,-0.7759,-0.7758,-0.7757,-0.775,-0.7747,-0.7744,-0.7741,-0.7731,-0.7727,-0.7728,-0.7723,-0.7728,-0.7728,-0.7727,-0.7702,-0.7701,-0.7732,-0.7732,-0.7732,-0.7732,-0.7732,-0.7732,-0.7811,-0.7813,-0.7805,-0.7804,-0.7798,-0.7796,-0.7793,-0.7789,-0.7783,-0.7781,-0.7778,-0.7771,-0.7763,-0.7759,-0.7756,-0.7753,-0.7753,-0.7759,-0.7754,-0.7732,-0.7728,-0.7725,-0.7724,-0.7759,-0.7759,-0.7779,-0.7779,-0.7779]},{"header":{"parameterUnit":"m.s-1","parameterCategory":1,"la1":30.2991,"la2":30.254,"lo1":-89.0895,"lo2":-89.0444,"dy":0.0017,"dx":0.0017,"nx":28,"ny":28,"refTime":"2024-03-29T21:00:00:Z","depth":0,"parameterNumber":3,"parameterNumberName":"V-component_of_WINDS"},"data":[0,0,0,0,0,0,0,0,0,0,0,0,0,0,0,0,0,0,0,0,0,0,0,0,0,0,0,0,0,0,0,0,0,0,0,0,0,0,0,0,0,0,0,0,0,0,0,0,0,0,0,0,0,0,0,0,0,0,4.0513,4.0514,0,4.0614,4.0615,4.0616,4.0594,4.0592,4.059,4.0588,4.0685,4.0689,4.0693,0,0,0,0,0,0,0,0,0,0,0,0,0,4.0294,4.0299,4.0513,4.0515,4.0516,4.0614,4.0615,4.0616,4.0594,4.0592,4.0589,4.0587,4.0683,4.0689,4.0694,0,0,0,0,0,0,0,0,0,0,0,0,0,4.0392,4.03,4.0513,4.0516,4.0518,4.0614,4.0615,4.0617,4.0594,4.0592,4.0589,4.0586,4.0682,4.0688,4.0694,4.0791,0,0,4.0714,4.0717,0,0,0,0,0,0,0,0,4.0386,4.04,4.0515,4.0516,4.0518,4.0588,4.0573,4.0675,4.0595,4.0565,4.0588,4.0585,4.0655,4.0663,4.0688,4.0796,4.08,4.0715,4.0719,4.0722,4.0723,0,0,0,0,0,0,0,4.0379,4.0395,4.0553,4.0516,4.0518,4.0511,4.0521,4.0593,4.0624,4.0567,4.0566,4.0579,4.0655,4.0682,4.069,4.0801,4.0715,4.072,4.0724,4.0727,4.099,4.0993,0,0,0,0,0,0,4.0372,4.039,4.055,4.0556,4.0444,4.0517,4.0529,4.0569,4.0623,4.0629,4.0581,4.0577,4.0672,4.0683,4.0693,4.0809,4.0722,4.0728,4.0731,4.0987,4.0991,4.0994,0,0,0,0,0,0,4.0368,4.0387,4.0546,4.0473,4.0492,4.0524,4.0568,4.0572,4.0599,4.0634,4.0639,4.0603,4.067,4.0684,4.0767,4.0812,4.0731,4.0736,4.0984,4.0989,4.0993,4.1041,0,0,0,0,0,0,4.0361,4.0385,4.0424,4.0474,4.0496,4.062,4.0571,4.0576,4.0611,4.0607,4.0656,4.0661,4.0669,4.0757,4.0773,4.0819,4.0742,4.098,4.0986,4.0991,4.1035,4.1046,4.1056,0,0,0,0,0,4.0354,4.0432,4.0426,4.0445,4.0546,4.0622,4.0635,4.0645,4.0615,4.0653,4.0675,4.066,4.0805,4.0766,4.0784,4.0832,4.0977,4.0984,4.0991,4.1031,4.1044,4.1056,0,0,0,0,0,0,4.0385,4.0439,4.0433,4.053,4.0572,4.0618,4.0667,4.0659,4.0708,4.0702,4.071,4.0721,4.0805,4.0827,4.0783,4.0927,4.0886,4.0897,4.091,4.0923,4.0934,4.0926,4.0747,0,0,0,0,0,4.0404,4.0464,4.0507,4.0589,4.061,4.0635,4.0669,4.0673,4.0715,4.0732,4.076,4.0801,4.0855,4.0891,4.0943,4.1039,4.1047,4.108,4.1091,4.1099,4.1108,4.1158,4.1173,4.1017,4.1017,4.1017,0,0,4.0442,4.0479,4.0516,4.0596,4.0629,4.0688,4.065,4.0715,4.0758,4.0741,4.0821,4.0843,4.0888,4.0978,4.1018,4.0998,4.1153,4.1108,4.1115,4.1119,4.1167,4.1181,4.1195,4.1022,4.1021,4.1021,0,0,4.0543,4.0578,4.0649,4.0683,4.0734,4.075,4.0767,4.0815,4.0829,4.091,4.0898,4.0948,4.1043,4.1075,4.1104,4.1215,4.1202,4.1232,4.1286,4.1334,4.1347,4.1357,4.1395,4.1409,4.1241,4.1241,4.1241,0,4.0583,4.0675,4.0686,4.0752,4.0787,4.0776,4.0847,4.0878,4.0943,4.0966,4.0943,4.106,4.109,4.1186,4.1213,4.1237,4.1255,4.1226,4.1344,4.1355,4.1366,4.1402,4.1416,4.1244,4.1244,4.1243,4.1243,0,4.0722,4.0785,4.0836,4.0901,4.0941,4.1009,4.1028,4.1067,4.1067,4.1084,4.1165,4.1201,4.1259,4.1282,4.1282,4.1377,4.1363,4.1343,4.1301,4.1383,4.1417,4.1432,4.1249,4.1248,4.1247,4.1246,0,0,4.0844,4.0914,4.0932,4.0961,4.1016,4.1064,4.113,4.1189,4.1221,4.1266,4.132,4.14,4.1381,4.1413,4.1417,4.146,4.1544,4.1434,4.1435,4.1452,4.1648,4.1663,4.1679,4.1536,4.1539,4.1541,4.1644,0,4.0948,4.1068,4.1079,4.1185,4.1243,4.1233,4.1291,4.1329,4.1347,4.1396,4.1415,4.1471,4.1443,4.1462,4.1504,4.1525,4.1583,4.1518,4.1584,4.1586,4.1572,4.1697,4.1712,4.1808,4.1658,4.166,4.1662,0,4.1086,4.1136,4.1248,4.1294,4.1319,4.1371,4.1424,4.1473,4.1515,4.1525,4.1561,4.1559,4.1624,4.1582,4.1671,4.1626,4.1654,4.1668,4.1671,4.1677,4.1628,4.1704,4.1839,4.1852,4.1683,4.1681,4.168,0,4.1162,4.1257,4.1336,4.1361,4.1417,4.1454,4.1478,4.1518,4.1552,4.1599,4.1621,4.1674,4.1702,4.1742,4.1753,4.1721,4.1841,4.18,4.1849,4.1849,4.1874,4.1872,4.2013,4.1894,4.1894,4.1894,4.1893,0,4.1276,4.1344,4.1371,4.142,4.1496,4.1507,4.1581,4.1603,4.1639,4.1689,4.1684,4.1731,4.1743,4.1792,4.1801,4.1872,4.1886,4.1893,4.1894,4.1893,4.1892,4.191,4.1903,4.1898,4.1897,4.1896,4.1895,0,4.1373,4.1394,4.148,4.1526,4.1539,4.1593,4.1631,4.1676,4.1693,4.1757,4.1773,4.1799,4.1856,4.1871,4.1939,4.1945,4.2028,4.2024,4.2015,4.2014,4.2062,4.2057,4.2219,4.224,4.2109,4.211,4.2111,0,4.1444,4.1497,4.1549,4.1584,4.161,4.1666,4.1701,4.1714,4.175,4.1802,4.1841,4.1897,4.1943,4.2035,4.2058,4.2109,4.2105,4.2158,4.2112,4.2109,4.2104,4.21,4.2104,4.2166,4.2168,4.2169,4.217,0,4.1567,4.1574,4.1627,4.1682,4.1725,4.1769,4.1811,4.1839,4.1857,4.1898,4.1957,4.1993,4.2063,4.2118,4.217,4.2192,4.2184,4.2185,4.2198,4.2197,4.2188,4.2192,4.2037,4.218,4.2179,4.2179,4.2178,4.2178,4.1652,4.1698,4.1742,4.1799,4.1833,4.1872,4.1916,4.1939,4.199,4.2049,4.2053,4.2116,4.2155,4.2225,4.225,4.2298,4.2282,4.2302,4.2307,4.2312,4.2315,4.2182,4.2308,4.2308,4.2307,4.2307,4.2307,0,4.1773,4.1801,4.1854,4.1913,4.1958,4.1949,4.1994,4.2031,4.2088,4.2127,4.2172,4.2239,4.2293,4.2321,4.2373,4.2406,4.2403,4.242,4.2416,4.2421,4.2328,4.231,4.2421,4.2421,4.2421,4.2421,4.2421,4.2421,4.1841,4.1918,4.193,4.2022,4.2049,4.2113,4.214,4.2175,4.2205,4.2281,4.2327,4.2345,4.2378,4.2433,4.2481,4.2487,4.2506,4.2524,4.2528,4.244,4.2428,4.2417,4.24,4.2529,4.2529,4.2618,4.2619,4.2619]}]]